Terminal Aerodrome Forecast
Issued by NWS Wilmington, NC

Home | Current Version | Previous Version | Text Only | Print | Product List | Glossary On
Versions: 1 2 3 4 5 6 7 8 9 10 11 12 13 14 15 16 17 18 19 20 21 22 23
000
FTUS42 KILM 031721
TAFILM
TAF
KILM 031721Z 0318/0418 23012KT P6SM VCSH BKN018 BKN040
     FM032100 22012KT 6SM -SHRA VCTS SCT020 BKN050CB
      TEMPO 0321/0401 4SM -TSRA
     FM040400 23007KT P6SM SCT070 BKN100
     FM041300 26012G18KT P6SM BKN080=

USA.gov is the U.S. government's official web portal to all federal, state and local government web resources and services.